Estación de Olivar Alto

Ultimos registro cada 15 minutos 77
Estación Fecha / Hora Temperatura Humedad Lluvia Velocidad Dirección Radiación Presion
77 Olivar Alto 02-05-2026 19:00 14,4 74 0 0 153 0 1017,7
76 Olivar Alto 02-05-2026 18:45 14,6 73 0 0 153 0 1017,5
75 Olivar Alto 02-05-2026 18:30 15,3 70 0 0 153 0 1017,1
74 Olivar Alto 02-05-2026 18:15 16,7 66 0 0 153 0 1016,6
73 Olivar Alto 02-05-2026 18:00 18,1 61 0 0 153 0 1016,5
72 Olivar Alto 02-05-2026 17:45 20 56 0 0 153 7 1016,5
71 Olivar Alto 02-05-2026 17:30 21,2 52 0 0 153 12 1016,3
70 Olivar Alto 02-05-2026 17:15 21,9 47 0 0 153 18 1016,2
69 Olivar Alto 02-05-2026 17:00 22,5 45 0 0,9 153 19 1016,5
68 Olivar Alto 02-05-2026 16:45 23 42 0 0,9 153 21 1016,6
67 Olivar Alto 02-05-2026 16:30 23,4 43 0 0 153 25 1016,7
66 Olivar Alto 02-05-2026 16:15 23,7 41 0 0 153 26 1016,7
65 Olivar Alto 02-05-2026 16:00 24,2 41 0 0 146 271 1016,7
64 Olivar Alto 02-05-2026 15:45 24,3 38 0 0 224 311 1016,7
63 Olivar Alto 02-05-2026 15:30 24,3 39 0 0,9 158 350 1016,7
62 Olivar Alto 02-05-2026 15:15 24,6 37 0 0,4 136 387 1016,6
61 Olivar Alto 02-05-2026 15:00 24,7 42 0 0,4 140 417 1016,6
60 Olivar Alto 02-05-2026 14:45 24,6 45 0 0 199 448 1016,6
59 Olivar Alto 02-05-2026 14:30 24,7 45 0 0,9 218 476 1016,6
58 Olivar Alto 02-05-2026 14:15 24,2 48 0 0 248 499 1016,7
57 Olivar Alto 02-05-2026 14:00 23,8 50 0 0,4 211 522 1016,9
56 Olivar Alto 02-05-2026 13:45 23,5 51 0 0,9 246 543 1017
55 Olivar Alto 02-05-2026 13:30 22,9 53 0 0 192 557 1017,1
54 Olivar Alto 02-05-2026 13:15 22,8 51 0 1,3 144 566 1017,3
53 Olivar Alto 02-05-2026 13:00 22,2 55 0 0,4 249 580 1017,5
52 Olivar Alto 02-05-2026 12:45 21,4 56 0 1,8 259 584 1017,6
51 Olivar Alto 02-05-2026 12:30 20,6 59 0 0,4 327 585 1017,9
50 Olivar Alto 02-05-2026 12:15 19,9 58 0 0 238 582 1018,2
49 Olivar Alto 02-05-2026 12:00 19,4 61 0 0 236 578 1018,5
48 Olivar Alto 02-05-2026 11:45 18,6 67 0 0,4 240 568 1018,7
47 Olivar Alto 02-05-2026 11:30 17,5 73 0 0,4 240 555 1018,9
46 Olivar Alto 02-05-2026 11:15 16,6 80 0 0 238 534 1018,9
45 Olivar Alto 02-05-2026 11:00 15,2 85 0 0 250 520 1019,1
44 Olivar Alto 02-05-2026 10:45 13,9 89 0 0 277 494 1018,8
43 Olivar Alto 02-05-2026 10:30 12,8 98 0 0 297 471 1019,2
42 Olivar Alto 02-05-2026 10:15 11,8 98 0 0 312 441 1019,5
41 Olivar Alto 02-05-2026 10:00 10,9 98 0 0 354 418 1019,6
40 Olivar Alto 02-05-2026 09:45 9,7 98 0 0 354 369 1019,5
39 Olivar Alto 02-05-2026 09:30 8,7 98 0 0 351 281 1019,6
38 Olivar Alto 02-05-2026 09:15 7,8 98 0 0 349 278 1019,6
37 Olivar Alto 02-05-2026 09:00 6,8 98 0 0 8 137 1019,7
36 Olivar Alto 02-05-2026 08:45 6,6 98 0 0 333 125 1019,9
35 Olivar Alto 02-05-2026 08:30 6,2 97 0 0 359 97 1019,6
34 Olivar Alto 02-05-2026 08:15 5,7 97 0 0 359 65 1019,7
33 Olivar Alto 02-05-2026 08:00 5,4 97 0 0 350 44 1019,7
32 Olivar Alto 02-05-2026 07:45 5,3 97 0 0,4 343 26 1019,5
31 Olivar Alto 02-05-2026 07:30 5,3 97 0 0 1 5 1019,5
30 Olivar Alto 02-05-2026 07:15 4,9 97 0 0 1 0 1019,6
29 Olivar Alto 02-05-2026 07:00 4,4 97 0,2 0 119 0 1019,7
28 Olivar Alto 02-05-2026 06:45 4,2 97 0 0 119 0 1019,5
27 Olivar Alto 02-05-2026 06:30 3,8 97 0 0 119 0 1019,6
26 Olivar Alto 02-05-2026 06:15 3,5 96 0 0 119 0 1019,6
25 Olivar Alto 02-05-2026 06:00 3,7 95 0 0 119 0 1019,4
24 Olivar Alto 02-05-2026 05:45 3,9 95 0 0 119 0 1019,5
23 Olivar Alto 02-05-2026 05:30 4,3 95 0 0 119 0 1019,5
22 Olivar Alto 02-05-2026 05:15 4,8 97 0 0 119 0 1019,5
21 Olivar Alto 02-05-2026 05:00 4,3 96 0 0 223 0 1019,6
20 Olivar Alto 02-05-2026 04:45 3,8 95 0 0 224 0 1019,7
19 Olivar Alto 02-05-2026 04:30 4,6 95 0 0 228 0 1019,8
18 Olivar Alto 02-05-2026 04:15 4,9 96 0 0 228 0 1019,8
17 Olivar Alto 02-05-2026 04:00 4,9 96 0 0 228 0 1020
16 Olivar Alto 02-05-2026 03:45 4,8 95 0 0 228 0 1020,1
15 Olivar Alto 02-05-2026 03:30 4,8 95 0 0 228 0 1020,4
14 Olivar Alto 02-05-2026 03:15 4,9 95 0 0 228 0 1020,5
13 Olivar Alto 02-05-2026 03:00 5,3 95 0 0 228 0 1020,8
12 Olivar Alto 02-05-2026 02:45 5,6 95 0 0 228 0 1021
11 Olivar Alto 02-05-2026 02:30 5,7 95 0 0 228 0 1021,2
10 Olivar Alto 02-05-2026 02:15 5,7 95 0 0 228 0 1021,4
9 Olivar Alto 02-05-2026 02:00 5,6 94 0 0 228 0 1021,5
8 Olivar Alto 02-05-2026 01:45 6,1 94 0 0 228 0 1021,6
7 Olivar Alto 02-05-2026 01:30 6,4 94 0 0 228 0 1021,8
6 Olivar Alto 02-05-2026 01:15 6,7 94 0 0 228 0 1022,1
5 Olivar Alto 02-05-2026 01:00 7,1 95 0 0 228 0 1022
4 Olivar Alto 02-05-2026 00:45 7,1 95 0 0 228 0 1022,2
3 Olivar Alto 02-05-2026 00:30 7,1 95 0 0 228 0 1022,3
2 Olivar Alto 02-05-2026 00:15 6,9 95 0 0 228 0 1022,5
1 Olivar Alto 02-05-2026 00:00 6,7 94 0 0 228 0 1022,6